Forks, WA

7:38 PM PST on January 23, 2017 (GMT -0800)
Quillayute

Weather History for KUIL - November, 2010

Change the Weather History Date:

Monday, November 22, 2010

  Actual Average Record
Temperature  
Mean Temperature 27 °F 43 °F  
Max Temperature 32 °F 49 °F 56 °F (1995)
Min Temperature 22 °F 37 °F 9 °F (1985)
Degree Days  
Heating Degree Days 38 22  
Month to date heating degree days 442  
Since 1 July heating degree days 1532  
Cooling Degree Days 0 0  
Month to date cooling degree days 0  
Year to date cooling degree days 19  
Moisture  
Dew Point 21 °F    
Average Humidity 81    
Maximum Humidity 93    
Minimum Humidity 58    
Precipitation  
Precipitation 0.05 in 0.53 in 1.84 in (1986)
Month to date precipitation 11.32  
Year to date precipitation 82.35  
Sea Level Pressure  
Sea Level Pressure 29.68 in    
Wind  
Wind Speed 9 mph (NE)    
Max Wind Speed 29 mph    
Max Gust Speed 45 mph    
Visibility 5 miles    
Events Snow    
T = Trace of Precipitation, MM = Missing Value Source: NWS Daily Summary

Daily Weather History Graph

Daily Weather History Graph

Search for Another Location

Airport or City:

Trip Planner

Search our weather history database for the weather conditions in past years. The results will help you decide how hot, cold, wet, or windy it might be!

Date:

Astronomy

Nov. 22, 2010 Rise Set
Actual Time 7:34 AM PST 4:33 PM PST
Civil Twilight 7:00 AM PST 5:08 PM PST
Nautical Twilight 6:21 AM PST 5:46 PM PST
Astronomical Twilight 5:45 AM PST 6:23 PM PST
Moon 5:12 PM PST (11/22) 8:50 AM PST (11/22)
Length of Visible Light 10h 07m
Length of Day
8h 58m
Full, 99% of the Moon is Illuminated
Nov 22
Full
Nov 28
Last Quarter
Dec 5
New
Dec 13
First Quarter
Dec 21
Full

Hourly Weather History & Observations

Time (PST) Temp. Windchill Dew Point Humidity Pressure Visibility Wind Dir Wind Speed Gust Speed Precip Events Conditions
12:53 AM 25.0 °F 19.3 °F 21.9 °F 88% 29.82 in 10.0 mi North 4.6 mph - N/A   Clear
1:53 AM 24.1 °F - 21.0 °F 88% 29.83 in 10.0 mi Calm Calm - N/A   Clear
2:53 AM 24.1 °F - 21.0 °F 88% 29.83 in 10.0 mi Calm Calm - N/A   Overcast
3:53 AM 25.0 °F - 21.0 °F 85% 29.82 in 10.0 mi Calm Calm - N/A   Clear
4:53 AM 26.1 °F 19.4 °F 23.0 °F 88% 29.80 in 10.0 mi East 5.8 mph - N/A   Mostly Cloudy
5:53 AM 27.0 °F 23.0 °F 24.1 °F 89% 29.79 in 10.0 mi East 3.5 mph - N/A   Overcast
6:53 AM 28.0 °F 21.7 °F 25.0 °F 88% 29.75 in 10.0 mi ENE 5.8 mph - N/A   Overcast
7:53 AM 28.9 °F 22.8 °F 25.0 °F 85% 29.72 in 10.0 mi East 5.8 mph - N/A   Overcast
8:53 AM 30.0 °F 26.5 °F 26.1 °F 85% 29.70 in 5.0 mi ESE 3.5 mph - 0.00 in Snow Light Snow
9:03 AM 30.2 °F 26.7 °F 26.6 °F 86% 29.69 in 1.8 mi East 3.5 mph - 0.00 in Snow Light Snow
9:08 AM 30.2 °F 24.3 °F 26.6 °F 86% 29.68 in 0.8 mi East 5.8 mph - 0.00 in Snow Light Snow
9:33 AM 30.2 °F 25.4 °F 26.6 °F 86% 29.66 in 1.5 mi East 4.6 mph - 0.01 in Snow Light Snow
9:36 AM 30.2 °F 25.4 °F 26.6 °F 86% 29.66 in 2.5 mi East 4.6 mph - 0.01 in Snow Light Snow
9:42 AM 30.2 °F 26.7 °F 28.4 °F 93% 29.66 in 1.8 mi East 3.5 mph - 0.01 in Snow Light Snow
9:53 AM 30.0 °F 24.1 °F 28.0 °F 92% 29.66 in 2.0 mi East 5.8 mph - 0.01 in Snow Light Snow
10:03 AM 30.2 °F - 26.6 °F 86% 29.65 in 1.8 mi Calm Calm - 0.00 in Snow Light Snow
10:12 AM 30.2 °F 21.3 °F 28.4 °F 93% 29.64 in 0.8 mi East 10.4 mph - 0.03 in Snow Light Snow
10:21 AM 32.0 °F 24.2 °F 28.4 °F 87% 29.64 in 1.5 mi NE 9.2 mph - 0.03 in Snow Light Snow
10:27 AM 30.2 °F 22.6 °F 28.4 °F 93% 29.63 in 3.0 mi East 8.1 mph - 0.03 in Snow Light Snow
10:35 AM 30.2 °F 25.4 °F 28.4 °F 93% 29.63 in 6.0 mi ENE 4.6 mph - 0.03 in Snow Light Snow
10:53 AM 30.9 °F - 28.0 °F 89% 29.63 in 10.0 mi Calm Calm - 0.03 in   Overcast
11:05 AM 30.2 °F 23.4 °F 26.6 °F 86% 29.61 in 10.0 mi NE 6.9 mph - N/A   Overcast
11:15 AM 30.2 °F 24.3 °F 26.6 °F 86% 29.60 in 9.0 mi Variable 5.8 mph - 0.00 in Snow Light Snow
11:53 AM 32.0 °F 25.6 °F 26.1 °F 79% 29.58 in 10.0 mi Variable 6.9 mph - 0.00 in   Overcast
12:12 PM 28.4 °F 20.4 °F 24.8 °F 86% 29.57 in 2.5 mi ENE 8.1 mph - 0.01 in Snow Light Snow
12:21 PM 28.4 °F 20.4 °F 23.0 °F 80% 29.57 in 5.0 mi East 8.1 mph - 0.01 in Snow Light Snow
12:53 PM 27.0 °F 14.7 °F 23.0 °F 85% 29.55 in 7.0 mi NE 16.1 mph 21.9 mph 0.01 in Snow Light Snow
1:16 PM 26.6 °F 14.7 °F 21.2 °F 80% 29.55 in 1.8 mi NE 15.0 mph 26.5 mph 0.00 in Snow Light Snow
1:25 PM 26.6 °F 12.4 °F 21.2 °F 80% 29.55 in 1.0 mi NE 21.9 mph 32.2 mph 0.00 in Snow Light Snow
1:37 PM 24.8 °F 9.0 °F 19.4 °F 80% 29.56 in 1.8 mi NE 25.3 mph 41.4 mph 0.00 in Snow Light Snow
1:42 PM 24.8 °F 10.0 °F 19.4 °F 80% 29.56 in 2.0 mi NE 21.9 mph 33.4 mph 0.00 in Snow Light Snow
1:53 PM 26.1 °F 12.0 °F 19.0 °F 75% 29.57 in 2.0 mi NE 20.7 mph 36.8 mph 0.00 in Snow Light Snow
2:10 PM 26.6 °F 12.7 °F 19.4 °F 74% 29.57 in 4.0 mi ENE 20.7 mph 39.1 mph 0.00 in Snow Light Snow
2:53 PM 25.0 °F 9.9 °F 17.1 °F 72% 29.60 in 10.0 mi NE 23.0 mph 31.1 mph 0.00 in   Partly Cloudy
3:53 PM 24.1 °F 10.6 °F 16.0 °F 71% 29.62 in 10.0 mi ENE 17.3 mph 27.6 mph 0.00 in   Clear
4:16 PM 24.8 °F 11.9 °F 17.6 °F 74% 29.63 in 2.5 mi NE 16.1 mph 34.5 mph 0.00 in Snow Light Snow
4:25 PM 23.0 °F 9.2 °F 15.8 °F 74% 29.64 in 6.0 mi NE 17.3 mph 28.8 mph 0.00 in Snow Light Snow
4:53 PM 23.0 °F 9.6 °F 17.1 °F 78% 29.67 in 4.0 mi NE 16.1 mph 21.9 mph 0.00 in Snow Light Snow
5:00 PM 23.0 °F 10.1 °F 17.6 °F 80% 29.67 in 3.0 mi NE 15.0 mph 27.6 mph 0.00 in Snow Light Snow
5:18 PM 23.0 °F 9.6 °F 17.6 °F 80% 29.67 in 2.5 mi NE 16.1 mph 26.5 mph 0.00 in Snow Light Snow
5:37 PM 23.0 °F 11.7 °F 17.6 °F 80% 29.69 in 1.5 mi NE 11.5 mph 23.0 mph 0.00 in Snow Light Snow
5:49 PM 23.0 °F 10.1 °F 17.6 °F 80% 29.70 in 2.0 mi NE 15.0 mph 21.9 mph 0.00 in Snow Light Snow
5:53 PM 23.0 °F 10.1 °F 18.0 °F 81% 29.71 in 1.5 mi NE 15.0 mph 21.9 mph 0.00 in Snow Light Snow
5:57 PM 23.0 °F 11.7 °F 17.6 °F 80% 29.70 in 2.0 mi NE 11.5 mph 20.7 mph 0.00 in Snow Light Snow
6:06 PM 23.0 °F 10.1 °F 17.6 °F 80% 29.70 in 4.0 mi NNE 15.0 mph 21.9 mph 0.00 in Snow Light Snow
6:34 PM 23.0 °F 10.6 °F 17.6 °F 80% 29.72 in 1.8 mi NNE 13.8 mph 19.6 mph 0.00 in Snow Light Snow
6:53 PM 23.0 °F 12.4 °F 18.0 °F 81% 29.73 in 3.0 mi NNE 10.4 mph 20.7 mph 0.00 in Snow Light Snow
7:07 PM 23.0 °F 12.4 °F 17.6 °F 80% 29.73 in 8.0 mi North 10.4 mph - 0.00 in   Mostly Cloudy
7:53 PM 23.0 °F 11.1 °F 12.9 °F 65% 29.76 in 10.0 mi NNE 12.7 mph 19.6 mph 0.00 in   Partly Cloudy
8:53 PM 23.0 °F 11.1 °F 10.9 °F 60% 29.79 in 10.0 mi NNE 12.7 mph 19.6 mph N/A   Scattered Clouds
9:53 PM 21.9 °F 9.8 °F 10.9 °F 63% 29.82 in 10.0 mi North 12.7 mph - N/A   Partly Cloudy
10:53 PM 21.9 °F 8.7 °F 10.0 °F 60% 29.85 in 10.0 mi North 15.0 mph 25.3 mph N/A   Clear
11:53 PM 21.9 °F 11.7 °F 9.0 °F 58% 29.89 in 10.0 mi North 9.2 mph 20.7 mph N/A   Clear